15min,AgWx,beryljct,423,27MAR2020:00:00:00,32.8,12.83,29.4,28.9,28.9,29.0,28.8,95,96,95,0.514,27.8,27.8,27.7,6.664,9.7,33,6.1,12.7,-0.00000,-0.00000,42.5,43.2,23,0,.,.,11.08,0.00,0.00
15min,AgWx,beryljct,423,27MAR2020:00:15:00,32.6,12.81,29.2,28.8,28.8,28.9,28.7,96,96,96,0.514,27.8,27.9,27.6,7.914,6.4,4.3,10,8.9,-0.00002,-0.00002,42.4,43.2,23,0,.,.,11.08,0.00,0.00
15min,AgWx,beryljct,423,27MAR2020:00:30:00,32.4,12.8,29.2,28.7,28.7,28.9,28.6,96,97,96,0.515,27.8,27.9,27.7,6.949,6.9,5.7,6.7,9.2,-0.00002,-0.00002,42.3,43.2,23,0,.,.,11.08,0.00,0.00
15min,AgWx,beryljct,423,27MAR2020:00:45:00,32.3,12.8,29.1,28.7,28.7,28.8,28.6,97,97,96,0.515,27.8,28.0,27.8,6.555,6.4,9.2,8.0,8.4,-0.00002,-0.00002,42.2,43.1,23,0,.,.,11.08,0.00,0.00
15min,AgWx,beryljct,423,27MAR2020:01:00:00,32.3,12.8,29.0,28.6,28.6,28.8,28.6,97,97,97,0.515,27.8,27.9,27.7,6.248,5.9,3.8,9.6,7.5,-0.00002,-0.00002,42.2,43.1,23,0,.,.,11.08,0.00,0.00
15min,AgWx,beryljct,423,27MAR2020:01:15:00,32.1,12.79,29.0,28.5,28.6,28.6,28.5,97,97,97,0.511,27.8,27.8,27.6,7.826,7.3,9.2,8.8,10.3,-0.00002,-0.00002,42.1,43.1,23,0,.,.,11.08,0.00,0.00
15min,AgWx,beryljct,423,27MAR2020:01:30:00,32.0,12.77,28.8,28.3,28.5,28.6,28.3,96,97,96,0.506,27.5,27.7,27.4,8.15,7.5,2.2,7.8,9.5,-0.00002,-0.00001,42.0,43.1,23,0,.,.,11.08,0.00,0.00
15min,AgWx,beryljct,423,27MAR2020:01:45:00,31.9,12.77,28.6,28.2,28.3,28.5,28.2,96,97,96,0.505,27.4,27.5,27.3,4.45,5.7,343,6.7,7.8,-0.00002,-0.00002,41.9,43.0,23,0,.,.,11.09,0.00,0.00
15min,AgWx,beryljct,423,27MAR2020:02:00:00,31.8,12.75,28.4,28.1,28.1,28.3,28.1,97,97,96,0.503,27.3,27.4,27.2,3.486,4.4,333,7.4,5.8,-0.00003,-0.00003,41.8,43.0,23,0,.,.,11.09,0.00,0.00
15min,AgWx,beryljct,423,27MAR2020:02:15:00,31.7,12.76,28.4,28.0,28.0,28.1,28.0,97,97,97,0.503,27.3,27.4,27.2,4.669,3.6,351,9.7,5.2,-0.00004,-0.00004,41.8,43.0,23,0,.,.,11.09,0.00,0.00
15min,AgWx,beryljct,423,27MAR2020:02:30:00,31.6,12.75,28.3,27.8,27.9,28.1,27.8,97,97,97,0.501,27.2,27.3,27.1,8.13,6.0,348,6.5,9.3,-0.00002,-0.00003,41.7,43.0,23,0,.,.,11.10,0.01,0.00
15min,AgWx,beryljct,423,27MAR2020:02:45:00,31.5,12.75,28.3,27.9,27.8,27.9,27.8,97,97,97,0.501,27.2,27.2,27.1,1.863,4.0,0.2,14,8.4,-0.00003,-0.00004,41.6,42.9,23,0,.,.,11.10,0.00,0.00
15min,AgWx,beryljct,423,27MAR2020:03:00:00,31.3,12.74,28.1,27.7,27.8,27.9,27.6,97,97,97,0.498,27.0,27.2,26.9,3.902,2.7,332,18,6.0,-0.00005,-0.00005,41.6,42.9,23,0,.,.,11.11,0.01,0.00
15min,AgWx,beryljct,423,27MAR2020:03:15:00,31.3,12.72,27.8,27.4,27.5,27.7,27.3,97,97,97,0.490,26.7,27.0,26.6,5.919,5.6,345,6.7,7.2,-0.00003,-0.00003,41.5,42.9,23,0,.,.,11.12,0.00,0.00
15min,AgWx,beryljct,423,27MAR2020:03:30:00,31.1,12.72,27.6,27.2,27.3,27.4,27.2,97,97,97,0.486,26.5,26.6,26.4,4.209,4.9,321,7.2,6.7,-0.00003,-0.00003,41.4,42.8,23,0,.,.,11.13,0.01,0.00
15min,AgWx,beryljct,423,27MAR2020:03:45:00,30.9,12.72,27.5,27.2,27.2,27.3,27.1,97,97,97,0.486,26.4,26.5,26.4,4.823,4.4,295,9.1,5.7,-0.00003,-0.00004,41.4,42.8,23,0,.,.,11.13,0.01,0.00
15min,AgWx,beryljct,423,27MAR2020:04:00:00,30.8,12.72,27.8,27.2,27.1,27.2,27.1,97,97,97,0.485,26.3,26.5,26.3,6.05,5.3,294,7.9,8.6,-0.00003,-0.00003,41.3,42.8,23,0,.,.,11.14,0.00,0.00
15min,AgWx,beryljct,423,27MAR2020:04:15:00,30.6,12.71,27.6,27.2,27.2,27.3,27.2,96,97,95,0.477,26.1,26.4,25.9,6.27,5.9,316,8.7,7.8,-0.00002,-0.00002,41.3,42.8,23,0,.,.,11.14,0.00,0.00
15min,AgWx,beryljct,423,27MAR2020:04:30:00,30.5,12.71,27.5,27.0,27.1,27.2,27.0,95,96,95,0.476,25.9,26.0,25.8,3.858,4.8,333,11,6.3,-0.00002,-0.00002,41.2,42.7,23,0,.,.,11.14,0.00,0.00
15min,AgWx,beryljct,423,27MAR2020:04:45:00,30.4,12.71,27.6,27.1,27.1,27.2,27.0,96,96,96,0.478,26.0,26.2,25.9,3.793,4.1,301,18,5.7,-0.00003,-0.00003,41.1,42.7,23,0,.,.,11.15,0.01,0.00
15min,AgWx,beryljct,423,27MAR2020:05:00:00,30.3,12.71,27.8,27.3,27.2,27.3,27.1,96,96,95,0.483,26.1,26.2,26.0,6.204,3.6,291,7.1,6.9,-0.00003,-0.00004,41.1,42.7,23,0,.,.,11.15,0.00,0.00
15min,AgWx,beryljct,423,27MAR2020:05:15:00,30.3,12.7,27.5,27.2,27.3,27.4,27.1,95,96,95,0.475,26.1,26.4,25.8,9.21,8.0,274,5.3,9.3,-0.00001,-0.00001,41.0,42.7,23,0,.,.,11.15,0.00,0.00
15min,AgWx,beryljct,423,27MAR2020:05:30:00,30.1,12.67,27.2,26.8,27.0,27.2,26.8,95,95,95,0.468,25.7,25.9,25.5,7.475,8.0,282,4.6,9.7,-0.00001,-0.00000,41.0,42.6,23,0,.,.,11.15,0.00,0.00
15min,AgWx,beryljct,423,27MAR2020:05:45:00,30.0,12.69,26.8,26.3,26.6,26.9,26.3,94,95,94,0.453,25.1,25.5,24.7,7.015,6.7,282,3.7,7.8,0.00005,0.00008,40.9,42.6,23,0,.,.,11.15,0.00,0.00
15min,AgWx,beryljct,423,27MAR2020:06:00:00,29.7,12.69,26.6,26.1,26.1,26.4,26.1,93,94,93,0.443,24.5,24.8,24.2,4.889,6.1,279,2.2,7.4,0.00005,0.00009,40.9,42.6,23,0,.,.,11.15,0.00,0.00
15min,AgWx,beryljct,423,27MAR2020:06:15:00,29.5,12.69,26.4,26.2,26.2,26.3,26.0,92,93,91,0.439,24.1,24.3,23.9,3.705,4.4,278,6.5,5.2,0.00005,0.00009,40.8,42.6,23,0,.,.,11.15,0.00,0.00
15min,AgWx,beryljct,423,27MAR2020:06:30:00,29.1,12.68,24.5,24.8,25.0,26.2,24.2,91,93,90,0.420,22.8,23.9,21.8,2.236,2.3,241,14,3.4,0.00004,0.00006,40.8,42.5,23,3,.,.,11.15,0.00,0.00
15min,AgWx,beryljct,423,27MAR2020:06:45:00,28.4,12.68,23.9,23.8,22.7,24.6,20.8,93,96,91,0.413,21.0,23.2,18.6,3.661,2.8,239,12,4.0,0.00006,0.00008,40.7,42.5,23,11,.,.,11.15,0.00,0.00
15min,AgWx,beryljct,423,27MAR2020:07:00:00,27.4,12.68,19.7,17.5,19.6,23.8,17.5,92,95,89,0.305,17.6,22.4,15.5,3.025,2.4,245,8.8,3.9,0.00012,0.00014,40.7,42.5,23,33,.,.,11.15,0.00,0.00
15min,AgWx,beryljct,423,27MAR2020:07:15:00,26.5,12.69,20.6,19.6,19.6,21.2,17.4,94,96,91,0.344,18.2,20.1,15.5,1.381,3.0,152,36,5.3,0.00020,0.00023,40.6,42.4,23,64,.,.,11.15,0.00,0.00
15min,AgWx,beryljct,423,27MAR2020:07:30:00,26.0,12.69,17.9,19.4,20.4,22.3,18.6,96,97,93,0.336,19.3,21.6,17.2,1.535,2.0,205,20,2.6,0.00031,0.00033,40.6,42.4,23,101,.,.,11.15,0.00,0.00
15min,AgWx,beryljct,423,27MAR2020:07:45:00,25.8,12.66,17.4,15.2,19.1,21.5,14.5,94,96,91,0.278,17.6,20.6,12.3,1.754,2.2,275,28,4.3,0.00037,0.00040,40.5,42.4,23,130,.,.,11.15,0.00,0.00
15min,AgWx,beryljct,423,27MAR2020:08:00:00,26.0,12.67,20.4,20.6,20.7,22.1,15.5,96,98,92,0.359,19.7,21.5,13.6,2.455,0.8,255,7.5,2.5,0.00059,0.00063,40.5,42.3,23,203,.,.,11.15,0.00,0.00
15min,AgWx,beryljct,423,27MAR2020:08:15:00,27.2,12.68,18.6,17.2,18.5,21.0,15.6,93,95,91,0.309,16.9,19.7,13.7,1.162,0.9,295,6.0,3.1,0.00087,0.00093,40.4,42.3,23,330,.,.,11.21,0.06,0.00
15min,AgWx,beryljct,423,27MAR2020:08:30:00,28.9,12.69,21.5,20.2,19.5,20.3,17.4,95,96,94,0.356,18.4,19.2,15.9,0,0.2,286,0.0,1.3,0.00109,0.00117,40.4,42.3,23,386,.,.,11.21,0.00,0.00
15min,AgWx,beryljct,423,27MAR2020:08:45:00,31.0,12.84,21.2,22.1,20.2,22.1,18.2,94,96,92,0.377,18.8,20.4,16.5,0.68,0.2,250,8.6,0.7,0.00129,0.00137,40.3,42.2,23,442,.,.,11.21,0.00,0.00
15min,AgWx,beryljct,423,27MAR2020:09:00:00,32.7,13.53,23.4,23.8,23.5,24.5,22.1,90,93,87,0.387,20.8,21.7,19.9,2.214,2.0,202,13,2.8,0.00143,0.00154,40.3,42.2,23,495,.,.,11.21,0.00,0.00
15min,AgWx,beryljct,423,27MAR2020:09:15:00,34.1,14.7,25.9,25.6,24.1,25.7,22.1,90,92,89,0.424,21.6,23.2,19.2,3.003,2.3,160,13,3.0,0.00161,0.00173,40.3,42.2,23,553,.,.,11.20,0.00,0.01
15min,AgWx,beryljct,423,27MAR2020:09:30:00,35.2,14.69,26.6,26.4,26.1,26.5,25.7,90,90,90,0.436,23.6,24.0,23.1,2.389,2.6,139,4.1,3.0,0.00187,0.00201,40.2,42.2,23,619,.,.,11.20,0.00,0.00
15min,AgWx,beryljct,423,27MAR2020:09:45:00,36.7,14.78,27.9,27.9,27.2,27.9,26.4,89,90,87,0.452,24.3,24.6,23.8,1.644,1.6,142,0.3,2.4,0.00242,0.00259,40.2,42.2,23,748,.,.,11.20,0.00,0.00
15min,AgWx,beryljct,423,27MAR2020:10:00:00,38.8,14.6,29.1,29.0,28.6,29.1,27.8,87,88,86,0.465,25.2,25.6,24.6,1.776,2.4,137,11,3.3,0.00278,0.00299,40.1,42.1,23,847,.,.,11.20,0.00,0.07
15min,AgWx,beryljct,423,27MAR2020:10:15:00,39.7,14.61,28.6,28.6,28.9,29.1,28.6,87,87,86,0.461,25.4,25.6,25.1,1.841,2.2,129,12,2.9,0.00181,0.00195,40.1,42.1,23,527,.,.,11.20,0.00,0.06
15min,AgWx,beryljct,423,27MAR2020:10:30:00,40.6,14.66,29.7,29.7,29.5,30.1,28.6,83,87,80,0.451,24.8,25.4,24.4,1.885,0.9,133,7.6,2.0,0.00275,0.00295,40.1,42.1,23,766,.,.,11.20,0.00,0.06
15min,AgWx,beryljct,423,27MAR2020:10:45:00,41.8,14.18,30.2,30.3,29.9,30.3,29.7,82,83,80,0.458,25.0,25.5,24.5,2.061,2.1,102,6.1,2.7,0.00276,0.00297,40.0,42.0,23,798,.,.,11.20,0.00,0.00
15min,AgWx,beryljct,423,27MAR2020:11:00:00,42.5,14.14,30.6,30.9,30.6,30.9,30.2,81,82,80,0.473,25.5,25.9,24.9,2.631,2.2,119,10,2.8,0.00287,0.00310,40.0,42.0,23,822,.,.,11.19,0.00,0.00
15min,AgWx,beryljct,423,27MAR2020:11:15:00,42.9,14.18,31.4,31.7,31.3,31.9,30.9,77,81,70,0.433,24.7,25.9,23.2,3.42,3.1,130,3.8,3.6,0.00293,0.00319,40.0,42.0,23,848,.,.,11.19,0.00,0.00
15min,AgWx,beryljct,423,27MAR2020:11:30:00,42.8,14.13,31.8,31.9,31.8,31.9,31.6,73,75,71,0.431,24.0,24.5,23.5,4.691,3.8,127,9.5,4.8,0.00299,0.00329,39.9,42.0,23,874,.,.,11.19,0.00,0.00
15min,AgWx,beryljct,423,27MAR2020:11:45:00,42.7,14.13,31.9,32.0,32.0,32.1,31.9,72,75,70,0.459,24.1,25.1,23.4,3.968,4.0,132,4.2,4.8,0.00309,0.00339,39.9,42.0,23,901,.,.,11.19,0.00,0.00
15min,AgWx,beryljct,423,27MAR2020:12:00:00,42.5,14.17,32.2,32.3,32.3,32.5,32.0,73,77,70,0.436,24.4,25.7,23.7,4.976,4.5,116,6.3,5.2,0.00312,0.00344,39.9,41.9,23,922,.,.,11.19,0.00,0.00
15min,AgWx,beryljct,423,27MAR2020:12:15:00,42.4,14.16,32.6,32.4,32.5,32.6,32.3,69,70,66,0.427,23.3,23.8,22.6,5.612,5.2,121,7.2,6.6,0.00327,0.00363,39.8,41.9,23,970,.,.,11.19,0.00,0.00
15min,AgWx,beryljct,423,27MAR2020:12:30:00,42.2,14.25,32.5,32.7,32.7,32.9,32.5,66,69,61,0.393,22.7,23.8,21.0,3.025,4.0,132,4.8,5.5,0.00336,0.00372,39.8,41.9,23,953,.,.,11.18,0.00,0.00
15min,AgWx,beryljct,423,27MAR2020:12:45:00,42.2,14.1,33.5,33.4,32.9,33.4,32.6,62,65,59,0.383,21.5,22.4,20.6,2.302,2.6,121,6.1,3.9,0.00307,0.00337,39.8,41.9,23,832,.,.,11.18,0.00,0.00
15min,AgWx,beryljct,423,27MAR2020:13:00:00,43.0,14.12,33.2,33.3,33.6,33.8,33.3,59,63,56,0.408,20.7,22.3,19.8,5.59,2.9,126,16,5.6,0.00346,0.00382,39.7,41.8,23,926,.,.,11.18,0.00,0.00
15min,AgWx,beryljct,423,27MAR2020:13:15:00,43.6,14.09,32.9,33.1,33.4,33.6,33.1,65,70,60,0.448,22.8,24.5,21.3,6.686,4.8,69,27,8.2,0.00328,0.00366,39.7,41.8,23,938,.,.,11.17,0.00,0.00
15min,AgWx,beryljct,423,27MAR2020:13:30:00,43.7,14.1,33.1,33.1,33.1,33.3,33.0,69,71,65,0.419,24.1,24.7,22.7,2.039,5.0,56,9.3,7.2,0.00299,0.00333,39.7,41.8,23,869,.,.,11.18,0.01,0.00
15min,AgWx,beryljct,423,27MAR2020:13:45:00,43.6,14.15,33.0,33.0,33.3,33.9,32.9,68,70,66,0.447,23.9,24.8,22.8,3.902,1.7,359,48,3.9,0.00166,0.00183,39.6,41.8,23,411,.,.,11.18,0.00,0.00
15min,AgWx,beryljct,423,27MAR2020:14:00:00,42.1,14.22,30.9,30.7,31.8,32.9,30.6,76,84,69,0.486,25.0,26.4,23.9,7.212,8.5,262,6.2,13.6,0.00107,0.00131,39.6,41.7,23,288,.,.,11.18,0.00,0.00
15min,AgWx,beryljct,423,27MAR2020:14:15:00,39.9,14.22,30.7,31.0,30.8,32.0,30.1,85,87,83,0.494,26.8,28.0,26.1,4.845,5.1,214,39,10.2,0.00208,0.00228,39.6,41.7,23,686,.,.,11.18,0.00,0.00
15min,AgWx,beryljct,423,27MAR2020:14:30:00,39.8,14.3,31.1,31.0,30.9,31.3,30.6,84,85,83,0.496,26.7,27.1,26.5,7.782,5.1,150,12,8.7,0.00236,0.00258,39.5,41.7,23,760,.,.,11.18,0.00,0.00
15min,AgWx,beryljct,423,27MAR2020:14:45:00,39.8,14.15,32.2,31.9,31.5,31.9,31.0,83,85,81,0.491,26.8,27.0,26.5,5.744,6.2,159,7.0,8.5,0.00244,0.00269,39.5,41.7,23,800,.,.,11.18,0.00,0.00
15min,AgWx,beryljct,423,27MAR2020:15:00:00,40.2,14.13,33.2,33.2,32.6,33.2,31.9,81,83,78,0.502,27.3,27.8,26.6,6.84,6.1,149,5.6,7.5,0.00243,0.00269,39.5,41.6,23,772,.,.,11.18,0.01,0.00
15min,AgWx,beryljct,423,27MAR2020:15:15:00,40.9,14.1,34.1,34.1,33.7,34.2,33.2,75,78,71,0.488,26.5,27.2,25.6,7.848,6.9,146,6.7,9.0,0.00251,0.00282,39.4,41.6,23,774,.,.,11.18,0.00,0.00
15min,AgWx,beryljct,423,27MAR2020:15:30:00,41.1,14.18,34.4,34.4,34.2,34.4,34.1,72,73,70,0.470,26.0,26.6,25.5,5.809,6.1,154,8.2,8.5,0.00173,0.00201,39.4,41.6,23,519,.,.,11.18,0.00,0.00
15min,AgWx,beryljct,423,27MAR2020:15:45:00,41.0,14.13,35.3,35.1,34.5,35.1,34.1,71,72,69,0.479,26.1,26.6,25.5,6.796,5.5,147,7.7,6.8,0.00150,0.00176,39.4,41.6,23,453,.,.,11.19,0.00,0.00
15min,AgWx,beryljct,423,27MAR2020:16:00:00,41.1,14.11,35.2,35.1,35.4,35.8,35.0,68,69,65,0.474,25.8,26.3,25.1,6.029,6.0,152,6.7,8.0,0.00158,0.00188,39.3,41.5,23,454,.,.,11.18,0.00,0.00
15min,AgWx,beryljct,423,27MAR2020:16:15:00,41.1,14.13,36.1,35.7,35.4,35.7,35.0,65,69,63,0.450,24.9,25.8,24.2,2.894,4.0,137,13,7.3,0.00114,0.00137,39.3,41.5,23,336,.,.,11.18,0.00,0.00
15min,AgWx,beryljct,423,27MAR2020:16:30:00,41.2,14.13,35.5,35.1,35.5,36.0,34.9,66,72,62,0.494,25.3,27.1,24.0,3.442,3.4,102,14,4.5,0.00111,0.00132,39.3,41.5,23,327,.,.,11.18,0.00,0.00
15min,AgWx,beryljct,423,27MAR2020:16:45:00,41.3,14.08,36.6,36.3,35.6,36.3,34.7,66,72,60,0.441,25.3,27.0,23.9,2.872,3.4,114,7.8,4.3,0.00132,0.00154,39.2,41.5,23,381,.,.,11.18,0.00,0.00
15min,AgWx,beryljct,423,27MAR2020:17:00:00,41.6,14.04,36.7,36.8,36.5,36.8,36.2,58,62,56,0.414,23.3,24.4,22.5,2.718,3.3,99,10,4.0,0.00118,0.00143,39.2,41.5,23,334,.,.,11.18,0.00,0.00
15min,AgWx,beryljct,423,27MAR2020:17:15:00,42.3,14.03,38.2,37.7,36.9,37.7,36.5,56,60,52,0.398,22.9,24.1,21.6,2.587,2.7,127,9.1,3.7,0.00123,0.00145,39.1,41.4,23,342,.,.,11.18,0.00,0.00
15min,AgWx,beryljct,423,27MAR2020:17:30:00,43.2,14.05,38.2,38.0,37.8,38.3,37.4,52,58,46,0.377,21.6,23.9,19.2,2.368,2.3,107,19,3.0,0.00104,0.00126,39.1,41.4,23,293,.,.,11.18,0.00,0.00
15min,AgWx,beryljct,423,27MAR2020:17:45:00,43.5,14.03,38.4,37.9,38.0,38.4,37.6,49,55,46,0.371,20.7,22.7,19.1,4.976,3.2,88,11,5.2,0.00079,0.00104,39.0,41.4,23,224,.,.,11.18,0.00,0.00
15min,AgWx,beryljct,423,27MAR2020:18:00:00,42.3,14.09,38.1,38.0,37.7,38.3,36.6,48,54,44,0.361,19.8,21.7,18.5,2.28,3.8,90,7.7,5.0,0.00028,0.00037,39.0,41.3,23,136,.,.,11.18,0.00,0.00
15min,AgWx,beryljct,423,27MAR2020:18:15:00,41.5,13.29,38.6,38.4,37.5,38.4,36.3,52,63,44,0.348,21.5,25.3,18.3,1.885,2.0,154,40,3.0,0.00021,0.00030,39.0,41.3,23,141,.,.,11.19,0.00,0.00
15min,AgWx,beryljct,423,27MAR2020:18:30:00,40.2,13.2,35.1,34.8,37.7,38.4,34.7,45,59,41,0.402,18.0,21.8,16.9,0.767,2.6,137,7.2,3.7,0.00006,0.00011,38.9,41.3,23,35,.,.,11.18,0.00,0.00
15min,AgWx,beryljct,423,27MAR2020:18:45:00,38.5,13.12,37.4,37.2,36.4,37.4,34.5,53,61,48,0.362,20.7,22.6,19.2,1.622,1.0,131,40,3.0,-0.00009,-0.00011,38.9,41.3,23,31,.,.,11.19,0.01,0.00
15min,AgWx,beryljct,423,27MAR2020:19:00:00,37.0,13.07,38.1,37.6,37.5,37.7,37.1,47,48,46,0.356,19.0,19.5,18.4,0.877,1.5,148,11,2.9,-0.00009,-0.00010,38.8,41.3,23,6,.,.,11.18,0.00,0.00
15min,AgWx,beryljct,423,27MAR2020:19:15:00,35.7,13.05,34.0,34.2,36.8,37.7,34.2,49,57,46,0.378,19.2,20.4,18.8,0,1.0,96,12,1.9,-0.00016,-0.00021,38.8,41.2,23,1,.,.,11.19,0.00,0.00
15min,AgWx,beryljct,423,27MAR2020:19:30:00,34.4,13.02,34.3,34.4,33.9,34.5,32.7,61,68,57,0.409,22.0,23.8,20.3,2.74,1.9,217,15,3.0,-0.00009,-0.00010,38.8,41.2,23,0,.,.,11.19,0.00,0.00
15min,AgWx,beryljct,423,27MAR2020:19:45:00,32.9,13,32.2,30.0,31.3,34.4,28.6,73,82,61,0.455,23.5,24.8,22.0,1.995,2.2,237,5.1,2.7,-0.00009,-0.00010,38.7,41.2,23,0,.,.,11.19,0.00,0.00
15min,AgWx,beryljct,423,27MAR2020:20:00:00,31.6,13,33.6,33.2,31.6,33.2,29.9,72,80,64,0.409,23.5,24.9,22.2,3.617,3.2,239,2.2,3.9,-0.00005,-0.00005,38.7,41.1,23,0,.,.,11.19,0.00,0.00
15min,AgWx,beryljct,423,27MAR2020:20:15:00,30.8,12.97,31.0,30.8,31.5,33.3,29.8,70,79,63,0.438,23.0,24.3,22.0,3.661,3.4,230,4.0,3.9,-0.00003,-0.00003,38.7,41.1,23,0,.,.,11.19,0.01,0.00
15min,AgWx,beryljct,423,27MAR2020:20:30:00,30.0,12.98,30.8,29.6,29.4,30.9,28.7,77,79,73,0.434,23.2,23.8,22.3,3.683,3.8,233,4.3,4.3,-0.00004,-0.00004,38.6,41.1,23,0,.,.,11.19,0.00,0.00
15min,AgWx,beryljct,423,27MAR2020:20:45:00,29.3,12.95,27.9,28.0,28.9,29.9,27.9,78,81,76,0.419,22.9,23.8,22.2,1.798,3.3,233,4.4,3.9,-0.00006,-0.00006,38.6,41.1,23,0,.,.,11.20,0.01,0.00
15min,AgWx,beryljct,423,27MAR2020:21:00:00,28.7,12.95,27.4,26.6,27.6,28.3,26.6,85,87,81,0.420,23.6,24.7,21.9,4.165,4.2,173,24,5.4,-0.00006,-0.00006,38.6,41.0,23,0,.,.,11.20,0.00,0.00
15min,AgWx,beryljct,423,27MAR2020:21:15:00,28.2,12.94,28.0,27.4,27.1,27.5,26.7,90,92,86,0.464,24.5,25.3,23.0,2.214,3.2,193,5.4,4.3,-0.00009,-0.00011,38.5,41.0,23,0,.,.,11.20,0.00,0.00
15min,AgWx,beryljct,423,27MAR2020:21:30:00,27.8,12.93,28.9,28.3,28.5,29.7,27.4,88,92,82,0.450,25.3,26.0,23.7,3.442,2.7,181,7.3,3.9,-0.00010,-0.00012,38.5,41.0,23,0,.,.,11.20,0.00,0.00
15min,AgWx,beryljct,423,27MAR2020:21:45:00,27.5,12.93,27.6,26.9,26.8,28.4,26.0,89,92,85,0.456,23.9,24.9,22.3,1.71,2.9,186,16,4.3,-0.00009,-0.00011,38.5,41.0,23,0,.,.,11.20,0.00,0.00
15min,AgWx,beryljct,423,27MAR2020:22:00:00,27.0,12.92,27.2,26.7,26.7,27.1,26.0,91,92,89,0.443,24.3,25.0,23.1,1.556,2.4,183,8.2,3.4,-0.00011,-0.00014,38.4,41.0,24,0,.,.,11.20,0.00,0.00
15min,AgWx,beryljct,423,27MAR2020:22:15:00,26.7,12.91,27.6,26.0,27.3,28.2,25.9,88,91,84,0.401,24.2,25.2,21.7,2.455,2.2,190,15,3.5,-0.00012,-0.00014,38.4,40.9,23,0,.,.,11.20,0.00,0.00
15min,AgWx,beryljct,423,27MAR2020:22:30:00,26.4,12.9,26.5,26.6,26.4,27.2,25.6,87,89,84,0.426,23.1,24.2,22.0,3.617,2.4,198,101,4.7,-0.00010,-0.00012,38.4,40.9,23,0,.,.,11.20,0.00,0.00
15min,AgWx,bigpiney,439,27MAR2020:00:00:00,16.8,12.74,15.5,15.1,14.9,15.1,14.6,75,77,73,0.223,8.3,8.8,7.9,3.727,4.4,287,6.0,5.2,0.00002,0.00003,31.5,31.7,14,0,0,0.0,6.04,0.00,0.00
15min,AgWx,bigpiney,439,27MAR2020:00:15:00,16.7,12.73,12.0,11.9,14.4,15.5,11.9,74,80,72,0.209,7.7,8.4,6.2,5.086,3.8,245,52,6.8,0.00001,0.00002,31.5,31.7,14,0,0,0.0,6.04,0.00,0.00
15min,AgWx,bigpiney,439,27MAR2020:00:30:00,16.4,12.72,12.1,11.7,11.7,12.0,11.6,81,82,80,0.210,7.1,7.5,6.9,5.59,5.5,208,11,6.7,0.00001,0.00002,31.5,31.8,14,0,0,0.0,6.04,0.00,0.00
15min,AgWx,bigpiney,439,27MAR2020:00:45:00,15.9,12.72,11.7,11.3,11.7,11.9,11.3,81,81,80,0.203,6.9,7.2,6.2,3.047,2.8,226,13,5.0,-0.00002,-0.00002,31.5,31.7,14,0,0,0.0,6.04,0.00,0.00
15min,AgWx,bigpiney,439,27MAR2020:01:00:00,15.4,12.71,12.4,11.5,11.8,12.3,11.2,79,80,79,0.203,6.5,7.0,6.1,4.713,3.0,233,9.0,4.7,-0.00001,-0.00001,31.5,31.7,14,0,0,0.0,6.04,0.00,0.00
15min,AgWx,bigpiney,439,27MAR2020:01:15:00,15.0,12.7,13.1,12.9,12.3,12.9,11.5,77,80,76,0.207,6.6,6.9,6.2,3.288,4.1,235,3.9,5.0,0.00001,0.00001,31.5,31.8,14,0,0,0.0,6.04,0.00,0.00
15min,AgWx,bigpiney,439,27MAR2020:01:30:00,14.8,12.7,14.2,13.7,13.8,14.2,12.9,74,76,73,0.212,7.2,7.7,6.6,3.025,4.1,249,7.6,5.7,0.00001,0.00002,31.5,31.7,14,0,0,0.0,6.04,0.00,0.00
15min,AgWx,bigpiney,439,27MAR2020:01:45:00,14.9,12.68,14.2,13.7,13.9,14.3,13.5,75,76,74,0.213,7.6,8.0,7.3,3.113,3.7,272,25,5.4,0.00001,0.00001,31.5,31.8,14,0,0,0.0,6.04,0.00,0.00
15min,AgWx,bigpiney,439,27MAR2020:02:00:00,15.0,12.68,15.0,14.4,14.3,14.5,13.7,74,77,73,0.214,7.6,8.1,7.3,5.59,4.9,255,12,6.6,0.00002,0.00003,31.5,31.7,14,0,0,0.0,6.04,0.00,0.00
15min,AgWx,bigpiney,439,27MAR2020:02:15:00,15.2,12.67,15.0,14.4,14.2,14.8,13.5,74,76,72,0.218,7.4,7.9,7.0,1.556,3.6,273,14,6.5,0.00001,0.00002,31.5,31.7,14,0,0,0.0,6.04,0.00,0.00
15min,AgWx,bigpiney,439,27MAR2020:02:30:00,15.3,12.66,13.3,13.1,14.1,14.5,13.1,73,75,71,0.206,6.9,7.8,6.5,3.573,2.8,234,13,4.2,-0.00000,0.00000,31.5,31.7,14,0,0,0.0,6.04,0.00,0.00
15min,AgWx,bigpiney,439,27MAR2020:02:45:00,15.2,12.65,13.9,13.2,12.8,13.2,12.6,76,76,75,0.209,6.6,6.9,6.2,4.165,4.3,231,13,5.9,0.00001,0.00002,31.5,31.7,14,0,0,0.0,6.04,0.00,0.00
15min,AgWx,bigpiney,439,27MAR2020:03:00:00,15.2,12.65,14.6,14.1,13.3,14.1,12.9,77,78,76,0.223,7.5,8.4,6.8,4.954,3.8,251,9.1,5.9,0.00000,0.00001,31.5,31.7,14,0,0,0.0,6.04,0.00,0.00
15min,AgWx,bigpiney,439,27MAR2020:03:15:00,15.4,12.64,14.6,14.3,14.2,14.5,14.1,76,78,75,0.225,8.1,8.7,7.8,1.885,3.9,259,20,6.8,0.00001,0.00001,31.5,31.8,14,0,0,0.0,6.04,0.00,0.00
15min,AgWx,bigpiney,439,27MAR2020:03:30:00,15.6,12.63,15.6,15.3,15.2,16.1,14.1,71,77,67,0.207,7.5,8.4,6.7,3.99,3.5,281,39,5.9,0.00001,0.00002,31.5,31.7,14,0,0,0.0,6.04,0.00,0.00
15min,AgWx,bigpiney,439,27MAR2020:03:45:00,15.8,12.62,13.5,13.1,14.5,15.3,13.1,72,79,68,0.218,7.3,7.9,6.7,2.455,3.5,293,56,5.6,0.00001,0.00002,31.5,31.7,14,0,0,0.0,6.04,0.00,0.00
15min,AgWx,bigpiney,439,27MAR2020:04:00:00,15.7,12.61,13.6,13.0,12.6,13.2,12.1,82,84,79,0.230,8.1,9.1,7.6,0.438,1.8,80,17,3.0,-0.00003,-0.00004,31.6,31.7,14,0,0,0.0,6.04,0.00,0.00
15min,AgWx,bigpiney,439,27MAR2020:04:15:00,15.3,12.61,13.2,12.6,12.5,13.1,12.1,81,84,80,0.215,7.8,9.1,7.3,0,0.5,157,44,1.5,-0.00007,-0.00010,31.5,31.8,14,0,0,0.0,6.04,0.00,0.00
15min,AgWx,bigpiney,439,27MAR2020:04:30:00,14.8,12.6,14.4,13.8,13.3,13.9,12.6,80,82,79,0.225,8.4,9.1,7.4,0.373,0.0,108,2.5,0.4,-0.00009,-0.00014,31.5,31.7,14,0,0,0.0,6.04,0.00,0.00
15min,AgWx,bigpiney,439,27MAR2020:04:45:00,14.2,12.59,13.8,13.5,13.6,13.9,13.3,77,79,76,0.214,7.8,8.7,7.3,2.543,0.7,69,19,2.5,-0.00006,-0.00009,31.5,31.7,14,0,0,0.0,6.04,0.00,0.00
15min,AgWx,bigpiney,439,27MAR2020:05:00:00,13.8,12.58,12.9,12.7,13.0,13.5,12.6,79,81,76,0.220,7.6,8.2,7.1,0,1.1,15,29,3.1,-0.00005,-0.00006,31.6,31.8,14,0,0,0.0,6.04,0.00,0.00
15min,AgWx,bigpiney,439,27MAR2020:05:15:00,13.5,12.57,11.0,11.0,11.8,12.8,10.5,84,87,81,0.216,7.9,8.4,6.8,0,0.9,266,22,1.7,-0.00006,-0.00008,31.6,31.7,14,0,0,0.0,6.04,0.00,0.00
15min,AgWx,bigpiney,439,27MAR2020:05:30:00,13.0,12.56,10.1,9.9,10.4,11.0,9.6,86,87,84,0.206,7.0,7.7,5.9,0.855,0.7,136,32,2.3,-0.00006,-0.00008,31.6,31.7,14,0,0,0.0,6.04,0.00,0.00
15min,AgWx,bigpiney,439,27MAR2020:05:45:00,12.5,12.55,10.7,9.5,9.6,10.1,9.0,84,87,81,0.190,5.6,6.9,4.3,4.801,3.5,222,7.8,5.0,-0.00001,-0.00001,31.6,31.7,14,0,0,0.0,6.04,0.00,0.00
15min,AgWx,bigpiney,439,27MAR2020:06:00:00,12.0,12.55,9.7,8.8,9.4,10.3,8.4,80,82,79,0.187,4.5,5.2,3.4,2.631,3.5,224,11,4.9,-0.00000,-0.00000,31.6,31.8,14,1,0,0.0,6.04,0.00,0.00
15min,AgWx,bigpiney,439,27MAR2020:06:15:00,11.7,12.57,11.3,10.6,10.0,10.8,8.8,81,84,78,0.195,5.2,5.5,4.5,2.521,1.6,297,48,4.0,-0.00003,-0.00004,31.6,31.7,14,4,0,0.0,6.04,0.00,0.00
15min,AgWx,bigpiney,439,27MAR2020:06:30:00,11.4,12.65,9.6,9.4,10.1,10.7,9.4,77,79,75,0.184,4.2,5.3,3.5,3.091,2.7,262,19,4.4,-0.00008,-0.00004,31.6,31.7,14,13,0,0.0,6.04,0.00,0.00
15min,AgWx,bigpiney,439,27MAR2020:06:45:00,11.4,12.87,11.0,10.5,9.7,10.6,9.1,81,82,79,0.199,4.9,6.2,3.9,1.973,3.3,262,11,5.0,-0.00006,-0.00003,31.6,31.7,14,43,0,0.0,6.04,0.00,0.00
15min,AgWx,bigpiney,439,27MAR2020:07:00:00,11.6,13.75,12.9,11.8,11.5,12.6,10.5,80,82,79,0.207,6.5,7.7,5.6,1.535,3.1,283,31,4.5,0.00007,0.00011,31.6,31.7,14,104,0,0.0,6.04,0.00,0.00
15min,AgWx,bigpiney,439,27MAR2020:07:15:00,12.2,15,14.2,13.8,12.7,13.8,11.8,79,82,76,0.218,7.4,8.2,6.8,2.455,2.0,304,33,3.8,0.00017,0.00021,31.6,31.7,14,148,0,0.0,6.04,0.00,0.00
15min,AgWx,bigpiney,439,27MAR2020:07:30:00,13.1,15,14.3,14.3,13.7,14.6,13.1,79,81,77,0.233,8.5,9.8,7.8,5.459,2.3,336,24,5.5,0.00030,0.00035,31.6,31.7,14,195,0,0.0,6.04,0.00,0.00
15min,AgWx,bigpiney,439,27MAR2020:07:45:00,14.3,15.01,14.2,14.7,13.9,14.7,13.3,80,82,79,0.237,9.0,9.8,8.2,3.814,3.4,37,19,6.1,0.00043,0.00050,31.6,31.8,14,246,0,0.0,6.04,0.00,0.00
15min,AgWx,bigpiney,439,27MAR2020:08:00:00,15.9,14.99,16.0,16.1,15.2,16.1,14.3,79,81,77,0.242,9.8,10.3,9.1,2.674,2.8,37,15,4.0,0.00058,0.00066,31.5,31.7,14,297,0,0.0,6.04,0.00,0.00
15min,AgWx,bigpiney,439,27MAR2020:08:15:00,17.9,14.99,18.3,18.7,16.5,18.7,15.5,76,78,74,0.261,10.3,11.9,9.3,0,1.6,74,32,5.1,0.00077,0.00085,31.6,31.8,14,348,0,0.0,6.04,0.00,0.00
15min,AgWx,bigpiney,439,27MAR2020:08:30:00,20.2,14.99,21.1,20.1,19.3,20.2,18.4,71,74,67,0.270,11.2,12.9,10.1,0,0.4,71,31,2.4,0.00103,0.00111,31.6,31.8,14,400,0,0.0,6.04,0.00,0.00
15min,AgWx,bigpiney,439,27MAR2020:08:45:00,22.7,14.57,22.8,21.7,21.0,21.9,20.1,63,73,56,0.227,10.2,13.6,8.4,2.718,2.2,359,40,5.3,0.00121,0.00135,31.6,31.7,14,450,0,0.0,6.04,0.00,0.00
15min,AgWx,bigpiney,439,27MAR2020:09:00:00,24.9,14.51,25.2,23.8,22.9,23.9,21.6,55,61,48,0.217,9.0,11.6,6.4,9.21,7.6,332,15,12.3,0.00136,0.00167,31.6,31.7,14,495,0,0.0,6.04,0.00,0.00
15min,AgWx,bigpiney,439,27MAR2020:09:15:00,26.6,14.47,23.9,23.9,24.0,24.8,23.5,49,55,46,0.204,7.7,11.0,5.9,10.41,9.7,331,13,13.8,0.00153,0.00193,31.6,31.7,14,540,0,0.0,6.04,0.00,0.00
15min,AgWx,bigpiney,439,27MAR2020:09:30:00,28.0,14.49,24.8,24.4,24.1,24.7,23.4,47,53,44,0.209,6.7,10.0,4.8,9.01,9.2,349,12,13.0,0.00166,0.00208,31.6,31.8,14,581,0,0.0,6.04,0.00,0.00
15min,AgWx,bigpiney,439,27MAR2020:09:45:00,29.0,14.44,25.7,24.3,24.4,25.2,23.7,45,51,42,0.193,6.3,9.4,4.2,6.533,9.8,339,8.4,12.8,0.00178,0.00223,31.5,31.7,14,619,0,0.0,6.04,0.00,0.00